Location: M�nchen
(48.1404°N, 11.6043°E)
Time: 17:08:22
(UTC+01:00)

ISS - Pass Details

Date: 15 November 2017
Orbit: 402 x 407 km, 51.6° (Epoch: 20 November)

Event Time Altitude Azimuth Distance (km) Brightness Sun altitude
Exits shadow 06:28:09 11° 265° (W) 1,412 -1.7 -8.9°
Maximum altitude 06:30:20 18° 221° (SW) 1,054 -1.9 -8.5°
Drops below altitude 10° 06:32:40 10° 175° (S) 1,448 -0.7 -8.2°
Sets 06:35:08 0° 156° (SSE) 2,303 0.7 -7.8°
